Regional Weather Roundup
Issued by NWS

Home | Current Version | Previous Version | Text Only | Print | Product List | Glossary Off
Versions: 1 2 3 4 5 6 7 8 9 10 11 12 13 14 15 16 17 18 19 20 21 22 23 24 25 26 27 28 29 30 31 32 33 34 35 36 37 38 39 40 41 42 43 44 45 46 47 48 49 50

000
ASUS43 KLMK 291602
RWRKY
KENTUCKY REGIONAL WEATHER ROUNDUP
NATIONAL WEATHER SERVICE LOUISVILLE KY
1200 PM EDT FRI APR 29 2016

NOTE "FAIR" INDICATES FEW OR NO CLOUDS BELOW 12,000 FEET
WITH NO SIGNIFICANT WEATHER AND/OR OBSTRUCTIONS TO VISIBILITY.

KYZ001>023-026-027-061>063-070>075-291700-
WESTERN AND SOUTH CENTRAL KENTUCKY

CITY           SKY/WX    TMP DP  RH WIND       PRES   REMARKS
PADUCAH        CLOUDY    64  53  67 E3        30.05R
HENDERSON      CLOUDY    64  46  52 E8        30.03S
OWENSBORO      CLOUDY    67  50  54 NE7       30.04S
HOPKINSVILLE   CLOUDY    67  56  67 E6        30.03R
BOWLING GREEN  MOSUNNY   71  56  58 NE7       30.03S
GLASGOW        NOT AVBL
$$

KYZ024-025-028>034-038-045-046-053-291700-
NORTH CENTRAL KENTUCKY

CITY           SKY/WX    TMP DP  RH WIND       PRES   REMARKS
LOUISVILLE/SDF CLOUDY    68  43  40 CALM      30.03F
LOUISVILLE/LOU MOSUNNY   67  46  47 NW7       30.05F
FORT KNOX      PTSUNNY   66  49  54 VRB1      30.03F
$$

KYZ035>037-039>044-047>052-055>060-089>105-291700-
NORTHEAST KENTUCKY

CITY           SKY/WX    TMP DP  RH WIND       PRES   REMARKS
LEXINGTON      MOSUNNY   66  52  60 W7        30.05S
COVINGTON      CLOUDY    63  50  62 NW10      30.04R
FRANKFORT      SUNNY     66  46  48 VRB3      30.05R
$$

KYZ054-064>069-076>088-106>120-291700-
SOUTHEAST KENTUCKY

CITY           SKY/WX    TMP DP  RH WIND       PRES   REMARKS
JACKSON        SUNNY     71  51  49 CALM      30.04F
LONDON         SUNNY     70  50  49 W5        30.06R
SOMERSET       NOT AVBL
MIDDLESBORO    SUNNY     75  49  39 N3        30.06S
MONTICELLO     SUNNY     73  54  51 VRB7      30.06F
$$




USA.gov is the U.S. government's official web portal to all federal, state and local government web resources and services.